Regional Weather Roundup
Issued by NWS

Home | Current Version | Previous Version | Graphics & Text | Print | Product List | Glossary On
Versions: 1 2 3 4 5 6 7 8 9 10 11 12 13 14 15 16 17 18 19 20 21 22 23 24 25 26 27 28 29 30 31 32 33 34 35 36 37 38 39 40 41 42 43 44 45 46 47 48 49 50
000
ASUS45 KBOU 012310
RWRCO

WEATHER ROUNDUP FOR COLORADO
NATIONAL WEATHER SERVICE DENVER/BOULDER CO
500 PM MDT SAT AUG 01 2015

NOTE: "FAIR" INDICATES FEW OR NO CLOUDS BELOW 12000 FEET WITH NO
SIGNIFICANT WEATHER AND/OR OBSTRUCTIONS TO VISIBILITY.

COZ001>005-013-030-031-020000-
...NORTHWEST COLORADO...

CITY           SKY/WX    TMP DP  RH WIND       PRES   REMARKS
CRAIG          PTSUNNY   90  33  13 CALM      30.13F
HAYDEN         PTSUNNY   84  28  13 S3        30.18S
MEEKER         CLOUDY    81  44  27 SW6       30.17S
MOUNT WERNER   NOT AVBL
STEAMBOAT SPGS PTSUNNY   83  35  17 W7        30.20S
WALDEN         MOSUNNY   79  27  14 NW7       30.30F
$$

COZ006>008-011-020000-
...WEST CENTRAL VALLEYS...

CITY           SKY/WX    TMP DP  RH WIND       PRES   REMARKS
GRAND JUNCTION CLOUDY    87  50  27 SW7       30.05F
MONTROSE       CLOUDY    84  49  29 CALM      30.16F
EAGLE          MOSUNNY   82  37  20 NW7       30.20F
RIFLE          CLOUDY    88  45  22 W20       30.08S
DELTA          CLOUDY    89  45  21 SW7       30.09F HAZE
NUCLA          CLOUDY    81  50  34 NW5       30.22F
$$

COZ017>023-064>068-020000-
...SOUTHWEST COLORADO...

CITY           SKY/WX    TMP DP  RH WIND       PRES   REMARKS
DURANGO        CLOUDY    73  55  53 E8        30.27F
CORTEZ         PTSUNNY   73  54  51 SE6       30.20F
PAGOSA SPRINGS CLOUDY    66  56  69 E3        30.36F
TELLURIDE      PTSUNNY   67  49  52 CALM      30.43F
WOLF CREEK PAS NOT AVBL
$$

COZ009-010-012-014-032>034-037-058>063-020000-
...CENTRAL COLORADO...

CITY           SKY/WX    TMP DP  RH WIND       PRES   REMARKS
ASPEN          CLOUDY    80  34  19 NW7       30.28S
BUENA VISTA    CLOUDY    76  35  22 SW13      30.29F
COPPER MTN     CLOUDY    64  28  25 W13       30.65S
BERTHOUD PASS  CLOUDY    52  41  66 MISG      30.71S THUNDER
COTTONWOOD PAS CLOUDY    68  32  26 SW9       30.47F
GUNNISON       CLOUDY    64  48  55 W7        30.41R
KREMMLING      PTSUNNY   82  21  10 SW7       30.24F
LEADVILLE      CLOUDY    68  28  22 W6        30.44F
MONARCH PASS   CLOUDY    52  37  58 W8        30.75S
SALIDA         CLOUDY    80  41  24 W6        30.32F
SUNLIGHT       CLOUDY    64  41  42 CALM      30.58S
WILKERSON PASS CLOUDY    61  32  33 NE3       30.61S
$$

COZ069>075-020000-
...SAN LUIS VALLEY/SANGRE DE CRISTO MOUNTAINS...

CITY           SKY/WX    TMP DP  RH WIND       PRES   REMARKS
ALAMOSA        CLOUDY    72  45  37 SW16      30.30R
LA VETA PASS   TSTM      48  45  87 MISG      30.54R
SAGUACHE       CLOUDY    73  43  33 NW14G20   30.32R
$$

COZ035-036-038>040-020000-
...NORTHERN COLORADO FRONT RANGE...

CITY           SKY/WX    TMP DP  RH WIND       PRES   REMARKS
DENVER INTL AP PTSUNNY   95  33  11 N9        30.06F
DMNS CITY PARK   N/A     92  33  12 NE3G13    30.05S
AURORA         PTSUNNY   89  40  17 NE8       30.08F
FRONT RANGE AP PTSUNNY   91  32  12 N8        30.07
ERIE MUNI ARPT PTSUNNY   92  36  14 CALM      30.04S
BOULDER MUN AP PTSUNNY   88  45  22 W3        30.06S
CENTENNIAL     PTSUNNY   91  34  13 NE8       30.09F
BROOMFIELD     PTSUNNY   93  43  17 NW9       30.09F
FORT COLLINS   MOSUNNY   93  43  17 SW7       30.00
LONGMONT       MOSUNNY   92  43  18 CALM      30.05F
$$

COZ041-046-047-076>085-087-088-020000-
...PIKES PEAK/PALMER DIVIDE AND SOUTHERN FOOTHILLS...

CITY           SKY/WX    TMP DP  RH WIND       PRES   REMARKS
COLO. SPRINGS  PTSUNNY   82  49  31 E9        30.16S THUNDER
A. F. ACADEMY  PTSUNNY   81  49  32 E17       30.17S
ELLICOTT       TSTM     N/A N/A N/A N13G41    30.16R
FALCON         CLOUDY    65  58  78 N7        30.22F
FORT CARSON    PTSUNNY   84  50  30 W7        30.11F THUNDER
LIMON          MOSUNNY   87  52  29 SE17G25   30.09F
MONUMENT HILL  NOT AVBL
TRINIDAD       CLOUDY    72  55  55 NW26G35   30.18R
$$

COZ042>045-048>051-090-091-020000-
...NORTHEAST COLORADO...

CITY           SKY/WX    TMP DP  RH WIND       PRES   REMARKS
GREELEY ARPT   SUNNY     95  36  12 CALM      30.01F
AKRON          SUNNY     90  53  28 SE20G28   30.03F
BURLINGTON     SUNNY     87  52  29 SE18G24   30.05F
WRAY           SUNNY     94  47  19 SE17G23   30.00F
STERLING       PTSUNNY   90  55  31 SE10      29.99R
HOLYOKE        NOT AVBL
FORT MORGAN    SUNNY     94  40  15 SE5       30.01F
$$

COZ086-089-092>099-020000-
...SOUTHEAST COLORADO...

CITY           SKY/WX    TMP DP  RH WIND       PRES   REMARKS
PUEBLO         PTSUNNY   93  51  23 SE16G22   30.01F THUNDER
LA JUNTA       MOSUNNY   92  56  29 E14G23    30.00F
LAMAR          SUNNY     92  58  31 E8        29.98S
SPRINGFIELD      N/A     89  61  38 SE13      30.04F
$$



USA.gov is the U.S. government's official web portal to all federal, state and local government web resources and services.